Torna al catalogo

STARLINK-4149

AttivoComunicazioniVLEO
NORAD 53290·PAYLOAD·🇺🇸 United States

Lanciato Jul 24, 2022 da Cape Canaveral Space Force Station

Loading…

Prossimi Passaggi (prossime 24 ore)

TLE

AggiornatoSource: CelesTrak SupGP

Epoca: Sep 14, 2026, 21:13 UTC

1 53290C 22086BA  26257.88451389  .00057227  00000+0  33334-2 0  2572
2 53290  53.2158  53.7921 0001585 119.0126 297.8690 15.11485843    13

Traccia STARLINK-4149 in tempo reale con AllMySat

Download on the App Store